Location: Chantarel
(45.1638°N, 1.7873°E)
Time: 19:07:55
(UTC+00:00)

CZ-2C R/B - Pass Details

Date: 03 March 2021
Orbit: 784 x 871 km, 98.2° (Epoch: 12 April)

Event Time Altitude Azimuth Distance (km) Brightness Sun altitude
Rises 19:41:33 0° 8° (N) 3,433 5.9 -21.6°
Reaches altitude 10° 19:44:02 10° 3° (N) 2,481 5.2 -22.0°
Maximum altitude 19:49:16 47° 291° (WNW) 1,094 3.7 -22.9°
Drops below altitude 10° 19:54:22 10° 219° (SW) 2,410 5.3 -23.8°
Sets 19:56:45 0° 213° (SSW) 3,325 6.0 -24.2°
